DW2380 Paimio FI current weather conditions

sailwx.info

Wind from 360 at 6 knots gusting 13

Air temperature 7.2° C
Dewpoint 6.5° C

Last reported at 2014-Oct-26 04:40 UTC.
Time now 2014-Oct-26 05:57 UTC

Location: N 60°28' E 022°40'.
View on Google Maps.

See reports from other nearby stations

  
Tides and Currents Weather Stations Pressure Air Temp Water Temp Dewpoint Dewpoint Depression Visibility Wind Speed Wind Dir Waves Ship Positions
date/time (UTC)wind fromknots sea level pressurealtimeterstation pressurevisibilityair tempwater tempwave heightnotes
2014-Oct-26 04:40 360 6 gusting 13 7.2
2014-Oct-26 04:25 360 7 gusting 15 7.2
2014-Oct-26 04:10 360 7 gusting 13 7.2
2014-Oct-26 03:55 360 6 gusting 13 6.7
2014-Oct-26 03:40 360 6 gusting 14 6.7
2014-Oct-26 03:25 360 6 gusting 12 6.7
2014-Oct-26 03:10 360 6 gusting 14 6.7
2014-Oct-26 02:55 360 6 gusting 13 6.7
2014-Oct-26 02:40 360 6 gusting 13 6.7
2014-Oct-26 02:25 360 4 gusting 12 6.7
2014-Oct-26 02:10 360 6 gusting 11 6.7
2014-Oct-26 01:55 360 6 gusting 10 6.7
2014-Oct-26 01:40 360 6 gusting 12 6.7
2014-Oct-26 01:25 360 6 gusting 13 6.7
2014-Oct-26 01:10 360 4 gusting 13 6.7
2014-Oct-26 00:55 360 6 gusting 13 6.7
2014-Oct-26 00:40 360 6 gusting 11 6.7
2014-Oct-26 00:25 360 6 gusting 13 6.7
2014-Oct-26 00:10 360 9 gusting 15 7.2
2014-Oct-25 23:55 360 6 gusting 12 7.2
2014-Oct-25 23:40 360 8 gusting 16 7.2
2014-Oct-25 23:25 360 10 gusting 18 7.2
2014-Oct-25 23:09 360 7 gusting 15 7.2
2014-Oct-25 22:54 360 8 gusting 14 7.2
2014-Oct-25 22:39 360 10 gusting 19 7.2
2014-Oct-25 22:24 360 8 gusting 15 7.2
2014-Oct-25 22:09 360 7 gusting 17 7.2
2014-Oct-25 21:54 360 9 gusting 16 7.2
2014-Oct-25 21:39 360 6 gusting 18 7.2
2014-Oct-25 21:24 360 8 gusting 15 7.2
2014-Oct-25 21:09 360 8 gusting 15 7.2
2014-Oct-25 20:54 360 11 gusting 18 7.2
2014-Oct-25 20:39 360 9 gusting 19 7.2
2014-Oct-25 20:24 360 9 gusting 17 7.2
2014-Oct-25 20:09 360 7 gusting 14 7.2
2014-Oct-25 19:54 360 7 gusting 15 6.7
2014-Oct-25 19:38 360 7 gusting 13 6.7
2014-Oct-25 19:23 360 7 gusting 13 6.7
2014-Oct-25 19:08 360 7 gusting 17 6.7
2014-Oct-25 18:53 360 8 gusting 12 6.1
2014-Oct-25 18:38 360 6 gusting 12 6.1
2014-Oct-25 18:23 360 6 gusting 12 6.1
2014-Oct-25 18:07 360 6 gusting 13 5.6
2014-Oct-25 17:52 360 5 gusting 11 5.6
2014-Oct-25 17:37 360 6 gusting 10 5.6
2014-Oct-25 17:22 360 8 gusting 13 5.6
2014-Oct-25 17:07 360 9 gusting 14 5.6
2014-Oct-25 16:52 360 8 gusting 14 5.6
2014-Oct-25 16:37 360 8 gusting 13 5.6
2014-Oct-25 16:21 360 9 gusting 15 5.6
2014-Oct-25 16:06 360 7 gusting 14 6.1
2014-Oct-25 15:51 360 6 gusting 16 6.1
2014-Oct-25 15:36 360 7 gusting 13 6.1
2014-Oct-25 15:21 360 7 gusting 19 6.1
2014-Oct-25 15:06 360 7 gusting 19 6.1
2014-Oct-25 14:51 360 8 gusting 19 6.1
2014-Oct-25 14:36 360 9 gusting 21 6.1
2014-Oct-25 14:21 360 10 gusting 19 6.1
2014-Oct-25 14:06 360 10 gusting 25 6.1
2014-Oct-25 13:51 360 12 gusting 21 6.1
2014-Oct-25 13:36 360 11 gusting 20 6.1
2014-Oct-25 13:21 360 11 gusting 17 6.1
2014-Oct-25 13:04 360 7 gusting 15 6.1
2014-Oct-25 12:49 360 8 gusting 18 6.1
2014-Oct-25 12:34 360 12 gusting 19 6.1
2014-Oct-25 12:19 360 8 gusting 22 6.1
2014-Oct-25 12:04 360 8 gusting 18 6.1
2014-Oct-25 11:49 360 7 gusting 18 6.1
2014-Oct-25 11:33 360 9 gusting 19 6.1
2014-Oct-25 11:18 360 8 gusting 19 6.1
2014-Oct-25 11:03 360 10 gusting 17 6.1
2014-Oct-25 10:48 360 9 gusting 20 6.1
2014-Oct-25 10:33 360 7 gusting 17 5.6
2014-Oct-25 10:18 360 9 gusting 19 5.6
2014-Oct-25 10:03 360 7 gusting 15 5.6
2014-Oct-25 09:47 360 6 gusting 22 5.6
2014-Oct-25 09:32 360 7 gusting 19 5.0
2014-Oct-25 09:17 360 8 gusting 15 5.0
2014-Oct-25 09:02 360 8 gusting 14 5.0
2014-Oct-25 08:47 360 6 gusting 16 5.0
2014-Oct-25 08:31 360 9 gusting 19 5.0
2014-Oct-25 08:17 360 6 gusting 13 4.4
2014-Oct-25 08:01 360 8 gusting 19 4.4
2014-Oct-25 07:46 360 6 gusting 17 4.4
2014-Oct-25 07:31 360 7 gusting 19 4.4
2014-Oct-25 07:16 360 10 gusting 18 4.4
2014-Oct-25 07:01 360 9 gusting 16 4.4
2014-Oct-25 06:46 360 6 gusting 15 4.4
2014-Oct-25 06:31 360 6 gusting 12 4.4
2014-Oct-25 06:16 360 7 gusting 18 4.4
2014-Oct-25 06:01 360 6 gusting 17 4.4
2014-Oct-25 05:46 360 10 gusting 19 4.4
2014-Oct-25 05:31 360 7 gusting 20 3.9
2014-Oct-25 05:16 360 7 gusting 13 3.9
2014-Oct-25 04:59 360 6 gusting 17 3.9
2014-Oct-25 04:44 360 8 gusting 15 3.9
2014-Oct-25 04:29 360 8 gusting 18 3.9
2014-Oct-25 04:14 360 7 gusting 15 3.9
2014-Oct-25 03:59 360 5 gusting 13 3.3
2014-Oct-25 03:44 360 6 gusting 17 3.3
2014-Oct-25 03:29 360 7 gusting 15 3.3
2014-Oct-25 03:14 360 8 gusting 15 3.3
2014-Oct-25 02:59 360 8 gusting 13 3.3
2014-Oct-25 02:44 360 6 gusting 15 3.3
2014-Oct-25 02:29 360 8 gusting 13 3.3
2014-Oct-25 02:14 360 6 gusting 12 3.3
2014-Oct-25 01:59 360 4 gusting 14 3.3
2014-Oct-25 01:44 360 6 gusting 13 2.8
2014-Oct-25 01:29 360 5 gusting 12 2.8
2014-Oct-25 01:14 360 6 gusting 15 2.8
2014-Oct-25 00:59 360 6 gusting 13 2.8
2014-Oct-25 00:44 360 7 gusting 13 2.8
2014-Oct-25 00:29 360 8 gusting 18 3.3
2014-Oct-25 00:14 360 7 gusting 15 3.3
2014-Oct-24 23:59 360 10 gusting 14 3.3
2014-Oct-24 23:44 360 5 gusting 15 3.3
2014-Oct-24 23:28 360 9 gusting 15 3.3
2014-Oct-24 23:13 360 6 gusting 15 3.3
2014-Oct-24 22:58 360 6 gusting 13 3.3
2014-Oct-24 22:43 360 6 gusting 13 3.3
2014-Oct-24 22:28 360 8 gusting 16 3.9
2014-Oct-24 22:13 360 8 gusting 16 3.3
2014-Oct-24 21:58 360 8 gusting 16 3.3
2014-Oct-24 21:43 360 7 gusting 18 3.3
2014-Oct-24 21:28 360 10 gusting 17 3.3
2014-Oct-24 21:13 360 9 gusting 19 3.3
2014-Oct-24 20:58 360 7 gusting 20 3.3
2014-Oct-24 20:43 360 9 gusting 19 3.3
2014-Oct-24 20:28 360 12 gusting 22 3.3
2014-Oct-24 20:13 360 10 gusting 18 3.3
2014-Oct-24 19:58 360 6 gusting 14 3.3
2014-Oct-24 19:43 360 7 gusting 16 3.3
2014-Oct-24 19:27 360 8 gusting 15 3.3
2014-Oct-24 19:13 360 7 gusting 16 3.3
2014-Oct-24 18:57 360 9 gusting 19 3.3
2014-Oct-24 18:42 360 7 gusting 16 3.3
2014-Oct-24 18:27 360 11 gusting 18 3.3
2014-Oct-24 18:12 360 11 gusting 23 3.3
2014-Oct-24 17:56 360 6 gusting 18 3.3
2014-Oct-24 17:41 360 9 gusting 16 3.3
2014-Oct-24 17:26 360 11 gusting 18 3.3
2014-Oct-24 17:11 360 5 gusting 19 3.3
2014-Oct-24 16:56 360 7 gusting 19 3.3
2014-Oct-24 16:41 360 11 gusting 20 3.3
2014-Oct-24 16:26 360 8 gusting 19 3.3
2014-Oct-24 16:11 360 8 gusting 19 3.3
2014-Oct-24 15:56 360 8 gusting 19 3.3
2014-Oct-24 15:41 360 10 gusting 18 3.3
2014-Oct-24 15:26 360 11 gusting 18 2.8
2014-Oct-24 15:11 360 8 gusting 22 3.3
2014-Oct-24 14:56 360 8 gusting 20 3.3
2014-Oct-24 14:09 360 10 gusting 22 3.3
2014-Oct-24 13:54 360 13 gusting 19 3.3
2014-Oct-24 13:39 360 13 gusting 23 3.3
2014-Oct-24 13:24 360 13 gusting 21 3.9
2014-Oct-24 13:09 360 8 gusting 19 3.9
2014-Oct-24 12:53 360 13 gusting 25 3.3
2014-Oct-24 12:38 360 15 gusting 23 3.3
2014-Oct-24 12:23 360 10 gusting 25 3.3
2014-Oct-24 12:08 360 6 gusting 27 3.3
2014-Oct-24 11:53 360 14 gusting 25 3.3
2014-Oct-24 11:38 360 12 gusting 22 3.3
2014-Oct-24 11:23 360 7 gusting 19 2.8
2014-Oct-24 11:07 360 8 gusting 19 2.8
2014-Oct-24 10:52 360 9 gusting 19 2.8
2014-Oct-24 10:37 360 12 gusting 18 2.8
2014-Oct-24 10:22 360 10 gusting 21 2.2
2014-Oct-24 10:07 360 10 gusting 20 2.2
2014-Oct-24 09:52 360 13 gusting 22 2.2
2014-Oct-24 09:36 360 13 gusting 20 2.2
2014-Oct-24 09:21 360 10 gusting 26 2.2
2014-Oct-24 09:06 360 11 gusting 19 2.2
2014-Oct-24 08:51 360 13 gusting 19 2.2
2014-Oct-24 08:36 360 12 gusting 22 1.7
2014-Oct-24 08:21 360 13 gusting 21 1.7
2014-Oct-24 08:06 360 11 gusting 25 1.1
2014-Oct-24 07:51 360 13 gusting 22 1.1
2014-Oct-24 07:36 360 13 gusting 19 1.1
2014-Oct-24 07:21 360 12 gusting 20 0.6
2014-Oct-24 07:06 360 9 gusting 18 0.6
2014-Oct-24 06:51 360 11 gusting 19 0.6
2014-Oct-24 06:34 360 10 gusting 17 0.6
2014-Oct-24 06:19 360 7 gusting 14 -0.0
2014-Oct-24 06:04 360 7 gusting 14 -0.0
2014-Oct-24 05:49 360 6 gusting 17 -0.0
2014-Oct-24 05:34 360 7 gusting 20 -0.0
2014-Oct-24 05:19 360 10 gusting 16 -0.0
2014-Oct-24 05:03 032 8 gusting 14 -0.0